User: anonymous   Login
Location: Muenchen
(48.1800°N, 11.5800°E)
Time: 03:13:52
(UTC+02:00)
Language:

Iridium 37 - Orbit

View from above orbital plane
View from above orbital plane
View from above satellite
View from above satellite

Ground track
Ground track

The orbit data is extracted from the following two-line orbital elements,

1 24968U 97056D   16242.47736915 -.00000045  00000-0 -23099-4 0  9991
2 24968  86.3922  80.8379 0002058  81.0651 279.0778 14.34215866990729
Epoch (UTC): 29 August 2016 11:27:24
Eccentricity: 0.0002058
inclination: 86.3922°
perigee height: 776 km
apogee height: 779 km
right ascension of ascending node: 80.8379°
argument of perigee: 81.0651°
revolutions per day: 14.34215866
mean anomaly at epoch: 279.0778°
orbit number at epoch: 99072

The dashed part of the orbit path shows where the satellite is in the earth's shadow,  

DLR